ATLAS 5 CENTAUR R/B, 49819

Orbit data source: Space-Track

ATLAS 5 CENTAUR R/B, 49819 is space debris in GEO originally from a launch on Tue, 07 Dec 2021 UTC launched from the Air Force Eastern Test Range (AFETR). Debris objects in space refer to the collection of defunct objects orbiting the Earth. Examples of debris include non-operational satellites, rocket bodies, and fragments generated from explosions, collisions, or faulty payload assembly.

Not visible in the next 10 days
Identifier
49819, 2021-118C
Orbit
GEO
Country
Flag of USUS
Related business
Flag of USUnited Launch Alliance/Lockheed Martin (US)
Manufacturer
ULA Decatur
Mission
Spacecraft
Bus & Motor
CENTAUR SEC, RL10C-1
Mass
~2,020 kg wet, 2,020 kg dry
Launch date (UTC)
2021-12-07 (5 years ago)
Launch vehicle
Unknown
Launch site
Air Force Eastern Test Range (AFETR)
Object type
Payload
Rocket body
Debris
Shape & HBR
Cyl + 1 Nozzle, 5.8 m
Radar Cross Section
32.260 m², Large (>1 m²)

Expand to show TLE details & history
Last TLE update: 3 days ago

TLE from 3 days ago
0 ATLAS 5 CENTAUR R/B
1 49819U 21118C   26170.91935167 -.00000171  00000-0  00000+0 0  9990
2 49819   4.5247  78.5114 0285007 206.6068 151.6337  0.94820764 15711
Epoch: 2026-06-19T22:03Z
TLE epoch observation values (Epoch: 2026-06-19T22:03:51.984Z)
Latitude
Longitude
-160.83708°
Altitude
38,498.244 km
Speed
2.942 km/s
True Right ascension
05h 13m 05s
True Declination
0° 00' 00"
Sunlit
Object was in daylight at epoch
Visualization orbit readout
Latitude
Unknown
Longitude
Unknown
Altitude
Unknown
Speed
Unknown
Apparent Right ascension
Unknown
Apparent Declination
Unknown
Sunlit
N/A
Visualization observer readout
Local Sidereal Time
21:42:13
Azimuth
Unknown
Elevation
Unknown
Doppler factor
Unknown
Orbital elements
Apogee altitude
38,635.866 km
Perigee altitude
36,141.107 km
Semi-major axis
43,766.624 km
Eccentricity
0.0285
Inclination
4.5247°
RAAN
78.5114°
Arg. of periapsis
206.6068°
True anomaly
153.13798°
Mean anomaly
151.6337°
Eccentric anomaly
152.39049°
Mean motion
0.23704 °/min
Orbital period
1,518.71 mins
BSTAR
0
Loading maneuver chart data...
Computing Atmospheric mass density...
Loading historical data...
Loading historical data...
Loading historical data...
Loading historical data...
Loading historical data...
Loading historical data...
Loading historical data...
Other satellites on launch #118 in the year 2021 (2021-12-07 UTC)

Documentation

Showing up to 5 results
|